Wind_Speed
38 38 39 39 39 39 39 39 40 40 39 38 38 39 39 39 39 39 39 39 39 39 39 39 39 39 39 40 40 41 42 42 42 42 42 42 42 42 42 42 42 42 42
39 40 40 41 41 41 41 41 42 42 42 42 42 41 41 41 41 40 40 40 40 40 40 39 39 39 39 40 40 40 41 42 42 41 41 41 41 41 41 42 41 41 42
39 40 41 41 42 42 42 42 42 42 43 43 43 43 43 43 43 42 42 42 41 40 40 40 40 39 39 40 40 41 41 42 42 42 41 41 41 41 41 41 41 41 41
40 41 41 41 42 42 42 42 42 42 42 42 43 43 43 43 43 43 43 43 42 41 40 40 40 40 40 40 40 41 41 41 41 42 42 42 42 42 42 41 41 41 40
42 42 42 42 42 43 43 43 43 42 42 43 43 43 43 43 43 43 43 42 42 41 41 40 40 40 40 40 40 40 41 41 42 42 43 43 43 43 43 42 42 42 41
43 43 44 44 44 44 44 45 45 45 44 44 44 44 44 43 43 43 43 42 42 42 42 41 41 40 40 40 40 41 42 42 43 43 42 42 42 42 42 42 42 42 42
44 44 45 45 45 46 46 46 46 46 46 46 46 45 45 45 44 44 44 44 43 43 43 42 42 42 42 42 42 42 42 43 43 43 42 41 42 42 42 42 42 42 42
46 46 46 47 47 47 47 47 47 47 47 47 47 47 47 46 46 45 45 45 44 44 44 44 44 44 44 43 43 43 43 43 43 42 42 42 42 42 43 43 43 43 42
47 47 47 48 49 48 48 48 48 48 48 48 48 48 48 48 47 47 47 46 46 45 45 45 44 44 44 44 43 42 42 42 43 43 42 42 42 43 43 43 44 44 44
49 50 50 50 50 50 50 49 49 49 49 49 49 49 49 49 49 49 48 47 46 45 45 45 45 45 45 44 43 43 42 42 42 42 42 42 43 43 43 44 44 44 44
51 51 51 51 51 51 51 51 51 50 50 50 50 50 50 50 49 49 49 48 47 47 47 46 46 46 46 45 44 44 43 43 43 42 43 43 43 43 44 44 44 44 44
51 51 52 52 52 52 52 52 51 51 51 51 51 50 50 50 50 50 50 49 49 48 47 47 47 47 46 45 44 44 44 44 44 43 43 43 44 44 45 45 45 44 44
51 51 51 52 52 52 52 51 51 51 51 51 51 50 49 49 49 49 50 50 49 48 47 47 47 47 47 46 45 44 44 44 44 45 44 44 45 45 44 44 44 43 43
52 51 51 51 52 52 52 51 51 51 51 51 50 50 49 49 49 49 49 49 49 49 48 48 48 48 47 46 45 44 44 45 45 44 44 44 44 44 43 43 43 42 41
53 52 52 51 52 51 51 51 51 51 50 50 49 49 49 48 48 49 49 49 49 48 48 48 48 47 46 46 45 44 44 44 44 44 43 43 43 43 42 42 41 41 40
53 53 52 51 51 51 50 50 50 50 50 49 49 49 49 48 48 48 48 48 48 48 48 48 47 46 46 45 45 44 44 43 43 42 42 41 41 41 41 40 39 38 37
53 52 52 51 50 49 49 49 48 48 48 48 48 48 47 47 47 46 46 46 46 46 46 45 45 44 44 44 43 43 42 41 40 40 40 39 39 39 38 38 37 36 35
52 51 51 50 49 48 48 48 48 47 46 46 46 46 46 45 45 44 44 44 44 43 43 42 41 41 41 41 41 40 39 38 38 38 38 37 37 37 37 36 35 35 34
50 50 49 49 48 49 48 48 47 47 46 45 44 44 44 44 43 42 42 42 41 41 40 39 38 37 37 37 37 37 36 36 36 36 35 35 35 35 34 33 33 33 32
48 48 48 49 49 48 48 47 46 45 44 43 42 42 43 43 42 41 40 40 39 38 38 37 36 36 35 35 35 34 34 34 34 33 33 33 32 31 31 31 31 31 30
46 46 47 47 47 47 46 45 44 43 43 42 41 41 41 41 40 40 39 38 37 36 36 36 35 34 34 34 33 33 33 32 32 32 31 31 30 30 30 30 30 30 29
45 45 45 45 45 44 44 43 42 42 41 41 40 39 39 38 37 37 36 35 35 34 33 33 33 32 31 31 31 31 31 31 31 30 30 29 29 29 29 29 29 28 28
43 43 43 42 42 41 41 40 39 39 39 38 37 36 35 34 33 32 32 31 31 31 30 30 30 29 30 30 30 30 30 30 30 30 29 29 28 28 28 28 28 28 28
41 41 41 40 39 38 38 37 37 36 35 34 33 32 31 31 30 30 29 29 29 29 28 28 28 28 28 29 29 30 30 30 29 29 28 28 28 27 27 27 26 26 27
38 37 36 35 35 34 34 34 33 32 31 30 29 28 28 27 27 27 27 27 27 27 27 27 27 28 28 28 28 29 29 29 28 27 27 27 27 26 26 26 25 25 25
34 33 32 31 31 30 30 29 28 28 27 27 26 26 25 25 24 25 25 26 26 26 25 25 26 27 27 27 27 27 27 26 26 26 26 26 25 25 25 24 24 24 25
Wind_Direction
263 265 266 267 268 269 270 270 271 271 272 272 272 274 274 275 275 276 276 276 276 276 276 276 277 277 276 275 274 273 273 274 275 275 277 278 277 277 277 278 278 279 280
265 265 267 268 269 270 271 271 271 272 272 272 273 273 273 274 275 275 275 276 276 276 276 276 276 276 276 275 274 273 274 274 275 276 276 277 277 277 279 279 279 279 280
266 266 267 268 269 270 272 273 273 274 274 273 273 273 273 273 274 275 275 275 276 276 276 276 276 276 276 275 274 274 274 274 274 275 276 276 277 278 279 279 280 280 281
267 268 269 270 271 272 273 274 274 275 274 274 274 274 274 273 274 274 275 275 275 275 275 276 276 276 276 275 275 274 273 273 274 275 276 276 277 278 278 279 280 281 282
269 270 270 271 272 273 273 273 274 274 273 274 274 274 274 273 273 274 274 274 274 274 275 276 276 276 276 276 275 274 274 274 275 275 276 276 276 277 278 279 280 280 282
270 271 271 272 272 273 273 274 274 274 274 273 273 274 274 273 273 273 273 273 273 273 274 275 275 276 276 276 275 275 275 275 275 275 275 276 276 277 277 279 279 280 281
271 271 272 273 273 274 274 275 275 274 274 274 274 273 273 273 272 271 271 271 271 271 272 272 274 275 275 276 276 276 276 275 275 275 275 275 276 276 277 277 279 280 281
271 272 272 273 273 274 274 274 274 274 274 274 274 273 273 272 272 271 271 271 270 270 271 271 272 273 274 274 275 275 276 276 275 275 275 276 277 277 278 278 278 279 280
273 273 273 273 274 274 274 273 274 273 273 273 274 273 273 272 271 270 270 270 270 270 270 270 270 271 272 273 274 274 274 274 274 274 274 275 276 277 278 277 278 278 279
273 273 273 274 274 274 274 274 274 274 274 273 273 273 271 271 270 270 270 270 269 269 269 269 270 270 271 272 272 272 273 273 273 273 274 275 276 276 277 277 278 278 279
273 273 273 274 274 274 275 275 275 274 274 274 273 273 271 270 269 268 268 268 268 268 267 268 269 270 270 271 271 271 271 271 272 273 274 275 277 278 278 279 279 280 280
274 274 274 274 274 275 275 275 275 274 274 274 273 272 271 270 268 268 267 267 267 267 267 268 268 269 270 270 270 270 270 271 271 272 274 275 276 277 279 280 280 280 281
275 274 274 274 275 275 276 276 275 274 274 274 273 272 270 269 268 267 267 267 267 267 266 267 267 268 269 269 269 269 269 270 271 272 273 275 276 277 278 279 280 280 280
275 275 275 276 276 276 276 276 276 275 275 274 273 271 269 269 269 268 268 267 266 266 266 266 266 267 267 267 268 268 269 271 271 271 272 273 275 276 278 279 280 280 280
276 276 276 276 276 276 276 276 276 276 276 274 273 271 270 269 268 268 267 267 266 266 265 265 265 265 266 267 267 268 269 271 272 272 272 273 274 275 276 277 279 279 279
276 276 276 276 276 276 275 275 276 276 275 275 273 272 271 270 269 268 267 267 266 266 265 264 264 264 265 265 266 267 268 270 271 272 272 272 273 274 275 276 278 278 279
276 275 275 275 275 275 275 275 275 275 274 274 273 273 272 271 269 268 267 267 266 266 265 264 264 264 264 264 265 266 268 268 270 271 271 272 273 273 274 275 276 277 278
274 274 274 274 274 274 275 276 276 275 273 272 272 272 271 270 269 268 267 266 266 265 265 264 264 264 264 263 264 265 265 266 268 270 271 271 272 273 273 274 275 275 277
273 273 273 273 274 274 275 275 276 275 274 272 271 270 270 269 268 267 266 265 264 264 263 263 263 263 262 263 263 263 264 265 267 268 269 271 272 272 272 273 274 275 276
273 273 274 274 274 274 274 275 275 275 274 272 271 270 269 268 267 265 264 263 263 262 262 262 262 261 261 261 261 261 262 263 264 266 268 270 271 271 272 272 273 275 276
272 273 274 275 274 274 274 273 273 273 272 271 271 270 269 267 265 263 262 262 262 260 260 260 260 260 259 259 259 259 260 261 262 264 266 269 270 271 272 272 273 274 276
272 273 273 273 274 273 273 272 271 272 272 272 271 269 267 266 264 262 261 260 259 258 258 257 256 256 256 256 257 258 259 259 260 262 264 267 268 270 271 272 272 273 275
272 272 273 273 273 272 271 270 271 272 271 271 270 267 264 263 261 259 258 256 255 255 254 254 254 254 254 256 257 257 258 258 259 260 263 265 267 269 270 271 270 271 274
272 273 272 272 271 270 269 269 270 270 270 269 267 264 261 258 257 255 254 252 252 252 252 253 254 254 254 255 256 257 257 258 258 259 261 263 265 267 270 270 270 272 274
273 273 272 270 269 268 268 268 268 268 267 265 262 260 257 254 253 252 250 250 251 251 252 254 254 254 255 255 255 256 257 256 256 258 259 261 263 266 268 269 270 272 274
273 272 270 268 267 266 266 266 265 265 264 262 259 256 253 251 250 249 248 249 250 251 253 254 254 254 255 255 255 255 255 255 255 257 258 260 262 265 266 267 269 271 274
Height
5679 5680 5680 5680 5681 5681 5681 5681 5681 5681 5681 5681 5681 5681 5681 5681 5681 5681 5681 5680 5680 5679 5679 5679 5678 5678 5678 5677 5677 5678 5678 5678 5679 5679 5677 5676 5675 5674 5673 5672 5672 5671 5670
5670 5670 5670 5670 5671 5671 5671 5671 5671 5671 5671 5671 5671 5671 5671 5671 5670 5670 5670 5670 5670 5670 5669 5669 5669 5668 5668 5668 5667 5667 5668 5668 5668 5668 5667 5666 5665 5664 5663 5662 5661 5660 5659
5659 5660 5660 5660 5660 5660 5660 5660 5660 5660 5659 5659 5659 5659 5659 5660 5660 5660 5659 5659 5659 5659 5659 5659 5659 5658 5658 5657 5657 5657 5657 5657 5657 5657 5656 5655 5655 5654 5653 5652 5651 5650 5648
5649 5649 5649 5650 5650 5650 5649 5649 5649 5648 5648 5647 5647 5647 5647 5648 5648 5648 5648 5648 5648 5648 5648 5648 5648 5648 5647 5647 5646 5646 5646 5646 5646 5646 5645 5645 5644 5643 5642 5642 5641 5639 5638
5638 5638 5638 5638 5638 5638 5638 5637 5637 5636 5636 5636 5635 5635 5635 5636 5636 5636 5636 5637 5637 5637 5637 5637 5637 5637 5636 5636 5635 5635 5635 5635 5635 5635 5634 5634 5633 5632 5632 5631 5631 5629 5628
5626 5626 5626 5626 5626 5626 5625 5625 5624 5624 5624 5623 5623 5623 5623 5623 5623 5624 5624 5624 5625 5625 5625 5626 5625 5625 5625 5625 5624 5624 5624 5624 5623 5623 5623 5623 5622 5621 5621 5620 5619 5618 5617
5614 5614 5614 5613 5613 5613 5612 5612 5611 5611 5611 5611 5610 5610 5610 5610 5610 5611 5611 5612 5612 5613 5613 5613 5614 5614 5613 5613 5613 5612 5612 5612 5612 5612 5612 5611 5610 5610 5609 5609 5608 5606 5605
5601 5601 5601 5600 5600 5599 5599 5598 5598 5597 5597 5597 5597 5597 5597 5597 5597 5597 5598 5599 5599 5600 5601 5601 5601 5601 5601 5601 5601 5601 5601 5600 5600 5600 5600 5600 5599 5598 5597 5597 5596 5595 5594
5587 5587 5587 5586 5585 5585 5584 5584 5584 5583 5583 5583 5583 5583 5583 5583 5583 5584 5584 5585 5586 5587 5588 5588 5589 5589 5589 5589 5589 5589 5589 5589 5588 5588 5588 5588 5587 5586 5585 5584 5583 5582 5582
5573 5572 5572 5571 5570 5570 5570 5569 5569 5568 5568 5568 5569 5569 5569 5569 5569 5569 5570 5571 5572 5573 5574 5575 5575 5576 5576 5576 5576 5577 5577 5577 5576 5576 5576 5575 5575 5574 5572 5572 5571 5570 5569
5558 5557 5557 5556 5555 5555 5554 5554 5553 5553 5553 5553 5553 5553 5553 5553 5554 5554 5555 5556 5558 5559 5560 5561 5562 5562 5562 5563 5563 5564 5564 5564 5564 5564 5564 5563 5562 5561 5560 5559 5558 5557 5557
5543 5542 5541 5540 5540 5539 5539 5538 5538 5537 5537 5537 5537 5538 5538 5538 5538 5539 5539 5541 5542 5544 5546 5547 5548 5548 5549 5549 5549 5550 5550 5551 5551 5551 5551 5551 5550 5549 5548 5547 5545 5544 5544
5528 5527 5526 5525 5524 5523 5523 5522 5522 5522 5521 5521 5521 5522 5522 5522 5522 5523 5524 5525 5527 5529 5531 5532 5533 5534 5534 5535 5536 5536 5537 5537 5538 5538 5538 5538 5537 5536 5535 5534 5533 5532 5531
5512 5511 5510 5509 5508 5508 5507 5506 5506 5506 5505 5505 5505 5505 5506 5507 5507 5508 5508 5509 5511 5513 5515 5516 5518 5519 5520 5521 5522 5522 5523 5523 5524 5524 5524 5524 5523 5523 5522 5522 5521 5519 5519
5496 5495 5495 5494 5493 5492 5491 5491 5490 5490 5488 5488 5489 5489 5490 5491 5492 5492 5493 5494 5495 5497 5499 5500 5502 5504 5505 5506 5507 5508 5509 5510 5510 5510 5510 5510 5510 5510 5510 5509 5508 5507 5507
5480 5479 5478 5477 5477 5476 5476 5476 5474 5474 5473 5472 5472 5472 5473 5474 5475 5476 5477 5478 5480 5481 5483 5485 5487 5489 5490 5492 5493 5494 5495 5496 5496 5496 5497 5497 5497 5497 5497 5497 5496 5496 5495
5463 5463 5462 5461 5461 5460 5460 5459 5460 5459 5458 5457 5457 5457 5457 5458 5459 5460 5461 5463 5464 5466 5467 5470 5472 5474 5476 5477 5479 5480 5481 5482 5483 5483 5484 5484 5485 5485 5485 5485 5484 5484 5483
5447 5447 5446 5446 5445 5445 5444 5444 5443 5443 5444 5444 5443 5442 5443 5443 5445 5446 5447 5448 5450 5451 5453 5455 5458 5460 5462 5463 5465 5466 5468 5469 5470 5471 5472 5472 5473 5473 5473 5473 5473 5473 5473
5431 5431 5431 5431 5430 5430 5429 5429 5428 5428 5428 5429 5429 5429 5429 5429 5430 5432 5433 5434 5436 5438 5440 5443 5445 5447 5449 5451 5452 5454 5455 5457 5458 5460 5461 5461 5462 5462 5462 5462 5463 5462 5462
5415 5415 5415 5415 5415 5415 5414 5414 5414 5413 5413 5414 5415 5415 5415 5416 5417 5419 5420 5421 5423 5426 5428 5431 5433 5435 5437 5439 5440 5442 5444 5446 5447 5449 5450 5450 5451 5451 5452 5452 5452 5453 5452
5400 5400 5400 5400 5400 5400 5400 5399 5399 5399 5400 5400 5401 5401 5401 5402 5404 5406 5407 5409 5411 5414 5416 5419 5421 5423 5426 5428 5429 5431 5433 5435 5437 5438 5439 5440 5441 5441 5442 5442 5443 5443 5443
5386 5386 5386 5385 5385 5385 5385 5386 5386 5386 5386 5387 5388 5388 5388 5389 5391 5393 5395 5397 5400 5402 5405 5407 5410 5413 5415 5417 5419 5421 5423 5425 5427 5428 5429 5430 5431 5432 5433 5433 5433 5434 5434
5371 5371 5371 5371 5371 5371 5372 5372 5373 5373 5374 5374 5375 5376 5377 5378 5380 5382 5385 5387 5389 5392 5395 5397 5400 5402 5405 5407 5409 5411 5413 5415 5417 5419 5420 5421 5422 5423 5423 5424 5424 5425 5425
5358 5358 5358 5358 5358 5358 5359 5360 5361 5361 5362 5363 5364 5365 5366 5368 5370 5372 5375 5377 5380 5383 5385 5388 5390 5393 5395 5397 5399 5402 5404 5406 5407 5409 5411 5412 5413 5414 5415 5415 5415 5416 5416
5345 5345 5345 5346 5346 5347 5348 5349 5350 5351 5351 5352 5353 5355 5356 5358 5361 5363 5366 5369 5371 5374 5377 5379 5381 5384 5386 5388 5390 5392 5394 5396 5398 5400 5401 5403 5404 5405 5406 5407 5407 5408 5408
5334 5334 5334 5335 5335 5336 5338 5339 5340 5341 5342 5343 5345 5346 5348 5350 5353 5355 5358 5361 5363 5366 5369 5371 5373 5375 5377 5379 5381 5383 5385 5387 5389 5391 5393 5394 5396 5397 5398 5398 5399 5400 5400